Location: Antioch
(38.0049°N, 121.8058°W)
Time: 18:11:48
(UTC+00:00)

Cosmos 2369 - Pass Details

Date: 11 February 2026
Orbit: 840 x 853 km, 71.0° (Epoch: 10 March)

Event Time Altitude Azimuth Distance (km) Brightness Sun altitude
Rises 14:22:30 0° 215° (SW) 3,394 6.6 -8.3°
Reaches altitude 10° 14:25:00 10° 220° (SW) 2,461 5.9 -7.8°
Maximum altitude 14:30:30 52° 296° (WNW) 1,045 3.9 -6.8°
Drops below altitude 10° 14:36:01 10° 12° (NNE) 2,467 6.1 -5.7°
Sets 14:38:32 0° 18° (NNE) 3,403 6.9 -5.2°
